Independence, KS

7:09 AM CDT on April 26, 2017 (GMT -0500)
Independence Municipal

Weather History for KIDP - October, 2012

Change the Weather History Date:

Tuesday, October 23, 2012

  Actual Average (KCFV) Record (KCFV)
Temperature  
Mean Temperature 74 °F -  
Max Temperature 80 °F 66 °F 82 °F (2001)
Min Temperature 68 °F 45 °F 32 °F (1999)
Cooling Degree Days 9    
Growing Degree Days 24 (Base 50)    
Moisture  
Dew Point 65 °F    
Average Humidity 77    
Maximum Humidity 94    
Minimum Humidity 58    
Precipitation  
Precipitation 0.00 in - - ()
Sea Level Pressure  
Sea Level Pressure 29.82 in    
Wind  
Wind Speed 16 mph (South)    
Max Wind Speed 28 mph    
Max Gust Speed 33 mph    
Visibility 10 miles    
Events      
Averages and records for this station are not official NWS values.
T = Trace of Precipitation, MM = Missing Value Source: NWS Daily Summary

Daily Weather History Graph

Daily Weather History Graph

Search for Another Location

Airport or City:

Trip Planner

Search our weather history database for the weather conditions in past years. The results will help you decide how hot, cold, wet, or windy it might be!

Date:

Astronomy

Oct. 23, 2012 Rise Set
Actual Time 7:39 AM CDT 6:35 PM CDT
Civil Twilight 7:12 AM CDT 7:01 PM CDT
Nautical Twilight 6:42 AM CDT 7:32 PM CDT
Astronomical Twilight 6:11 AM CDT 8:02 PM CDT
Moon 3:12 PM CDT (10/23) 1:40 AM CDT (10/23)
Length of Visible Light 11h 49m
Length of Day
10h 56m
Waxing Gibbous, 67% of the Moon is Illuminated
Oct 23
Waxing Gibbous
Oct 29
Full
Nov 6
Last Quarter
Nov 13
New
Nov 20
First Quarter

Hourly Weather History & Observations

Time (CDT) Temp. Heat Index Dew Point Humidity Pressure Visibility Wind Dir Wind Speed Gust Speed Precip Events Conditions
12:15 AM 68.0 °F - 62.6 °F 83% 29.86 in 10.0 mi South 12.7 mph 16.1 mph N/A   Scattered Clouds
12:35 AM 68.0 °F - 64.4 °F 88% 29.86 in 10.0 mi South 10.4 mph - N/A   Scattered Clouds
1:15 AM 68.0 °F - 64.4 °F 88% 29.86 in 10.0 mi South 11.5 mph - N/A   Overcast
1:35 AM 68.0 °F - 64.4 °F 88% 29.86 in 10.0 mi South 9.2 mph - N/A   Overcast
1:55 AM 68.0 °F - 64.4 °F 88% 29.85 in 10.0 mi South 10.4 mph - N/A   Overcast
2:15 AM 68.0 °F - 64.4 °F 88% 29.86 in 10.0 mi South 11.5 mph - N/A   Mostly Cloudy
2:35 AM 68.0 °F - 64.4 °F 88% 29.85 in 10.0 mi South 11.5 mph 16.1 mph N/A   Scattered Clouds
2:55 AM 68.0 °F - 64.4 °F 88% 29.85 in 10.0 mi South 12.7 mph - N/A   Scattered Clouds
3:35 AM 68.0 °F - 64.4 °F 88% 29.83 in 10.0 mi South 13.8 mph - N/A   Clear
3:55 AM 68.0 °F - 66.2 °F 94% 29.82 in 10.0 mi South 17.3 mph - N/A   Scattered Clouds
4:15 AM 68.0 °F - 66.2 °F 94% 29.82 in 10.0 mi South 16.1 mph 23.0 mph N/A   Mostly Cloudy
4:35 AM 68.0 °F - 64.4 °F 88% 29.82 in 10.0 mi South 13.8 mph 21.9 mph N/A   Mostly Cloudy
4:55 AM 68.0 °F - 64.4 °F 88% 29.82 in 10.0 mi South 13.8 mph 21.9 mph N/A   Mostly Cloudy
5:15 AM 68.0 °F - 64.4 °F 88% 29.82 in 10.0 mi South 12.7 mph 18.4 mph N/A   Mostly Cloudy
5:35 AM 68.0 °F - 64.4 °F 88% 29.82 in 10.0 mi South 15.0 mph - N/A   Overcast
5:55 AM 68.0 °F - 64.4 °F 88% 29.82 in 10.0 mi South 16.1 mph - N/A   Overcast
6:35 AM 68.0 °F - 64.4 °F 88% 29.82 in 10.0 mi South 13.8 mph 18.4 mph N/A   Overcast
7:15 AM 68.0 °F - 64.4 °F 88% 29.83 in 10.0 mi South 12.7 mph - N/A   Overcast
7:35 AM 68.0 °F - 64.4 °F 88% 29.84 in 10.0 mi South 15.0 mph - N/A   Overcast
7:55 AM 68.0 °F - 64.4 °F 88% 29.83 in 10.0 mi South 15.0 mph 19.6 mph N/A   Overcast
8:15 AM 68.0 °F - 64.4 °F 88% 29.84 in 10.0 mi South 13.8 mph 19.6 mph N/A   Overcast
8:35 AM 69.8 °F - 64.4 °F 83% 29.84 in 10.0 mi South 15.0 mph 24.2 mph N/A   Overcast
8:55 AM 69.8 °F - 64.4 °F 83% 29.85 in 10.0 mi South 17.3 mph 24.2 mph N/A   Overcast
9:15 AM 69.8 °F - 64.4 °F 83% 29.85 in 10.0 mi South 17.3 mph 24.2 mph N/A   Overcast
9:35 AM 69.8 °F - 64.4 °F 83% 29.85 in 10.0 mi South 18.4 mph 24.2 mph N/A   Overcast
9:55 AM 69.8 °F - 64.4 °F 83% 29.85 in 10.0 mi South 17.3 mph 23.0 mph N/A   Overcast
10:15 AM 71.6 °F - 64.4 °F 78% 29.85 in 10.0 mi South 16.1 mph 23.0 mph N/A   Overcast
10:55 AM 71.6 °F - 64.4 °F 78% 29.84 in 10.0 mi South 20.7 mph 28.8 mph N/A   Overcast
11:15 AM 73.4 °F - 64.4 °F 73% 29.84 in 10.0 mi South 26.5 mph 31.1 mph N/A   Overcast
11:35 AM 73.4 °F - 64.4 °F 73% 29.84 in 10.0 mi South 21.9 mph 29.9 mph N/A   Overcast
11:55 AM 73.4 °F - 64.4 °F 73% 29.83 in 10.0 mi South 20.7 mph 28.8 mph N/A   Overcast
12:15 PM 75.2 °F - 64.4 °F 69% 29.83 in 10.0 mi South 20.7 mph 32.2 mph N/A   Overcast
12:35 PM 77.0 °F - 64.4 °F 65% 29.82 in 10.0 mi SSW 21.9 mph 32.2 mph N/A   Overcast
12:55 PM 77.0 °F - 64.4 °F 65% 29.81 in 10.0 mi SSW 24.2 mph 33.4 mph N/A   Overcast
1:15 PM 77.0 °F - 64.4 °F 65% 29.80 in 10.0 mi SSW 25.3 mph 33.4 mph N/A   Overcast
1:35 PM 78.8 °F - 64.4 °F 61% 29.79 in 10.0 mi South 27.6 mph 32.2 mph N/A   Mostly Cloudy
1:55 PM 77.0 °F - 64.4 °F 65% 29.78 in 10.0 mi SSW 24.2 mph 32.2 mph N/A   Mostly Cloudy
2:15 PM 78.8 °F - 64.4 °F 61% 29.77 in 10.0 mi South 23.0 mph 32.2 mph N/A   Mostly Cloudy
2:35 PM 78.8 °F - 64.4 °F 61% 29.77 in 10.0 mi SSW 25.3 mph 33.4 mph N/A   Mostly Cloudy
2:55 PM 80.6 °F 82.3 °F 64.4 °F 58% 29.77 in 10.0 mi South 25.3 mph 29.9 mph N/A   Scattered Clouds
3:15 PM 78.8 °F - 64.4 °F 61% 29.76 in 10.0 mi South 25.3 mph 32.2 mph N/A   Mostly Cloudy
3:35 PM 78.8 °F - 64.4 °F 61% 29.75 in 10.0 mi South 24.2 mph 31.1 mph N/A   Scattered Clouds
3:55 PM 78.8 °F - 64.4 °F 61% 29.75 in 10.0 mi South 24.2 mph 31.1 mph N/A   Clear
4:15 PM 80.6 °F 82.3 °F 64.4 °F 58% 29.75 in 10.0 mi South 20.7 mph 33.4 mph N/A   Clear
4:35 PM 78.8 °F - 64.4 °F 61% 29.75 in 10.0 mi South 26.5 mph 32.2 mph N/A   Clear
4:55 PM 78.8 °F - 64.4 °F 61% 29.75 in 10.0 mi South 25.3 mph 31.1 mph N/A   Clear
5:15 PM 77.0 °F - 64.4 °F 65% 29.75 in 10.0 mi South 19.6 mph 29.9 mph N/A   Clear
5:35 PM 77.0 °F - 64.4 °F 65% 29.77 in 10.0 mi South 17.3 mph 27.6 mph N/A   Clear
5:55 PM 77.0 °F - 64.4 °F 65% 29.78 in 10.0 mi South 16.1 mph 23.0 mph N/A   Clear
6:15 PM 75.2 °F - 64.4 °F 69% 29.78 in 10.0 mi South 19.6 mph 24.2 mph N/A   Clear
6:35 PM 75.2 °F - 64.4 °F 69% 29.78 in 10.0 mi South 18.4 mph 26.5 mph N/A   Clear
6:55 PM 75.2 °F - 64.4 °F 69% 29.79 in 10.0 mi South 20.7 mph 29.9 mph N/A   Mostly Cloudy
7:15 PM 75.2 °F - 64.4 °F 69% 29.80 in 10.0 mi South 16.1 mph - N/A   Overcast
7:35 PM 73.4 °F - 64.4 °F 73% 29.81 in 10.0 mi South 13.8 mph 18.4 mph N/A   Scattered Clouds
7:55 PM 73.4 °F - 66.2 °F 78% 29.81 in 10.0 mi South 15.0 mph 20.7 mph N/A   Scattered Clouds
8:15 PM 71.6 °F - 66.2 °F 83% 29.81 in 10.0 mi South 16.1 mph - N/A   Scattered Clouds
8:35 PM 71.6 °F - 66.2 °F 83% 29.81 in 10.0 mi South 16.1 mph - N/A   Clear
8:55 PM 71.6 °F - 66.2 °F 83% 29.82 in 10.0 mi South 16.1 mph 19.6 mph N/A   Clear
9:15 PM 71.6 °F - 64.4 °F 78% 29.82 in 10.0 mi South 12.7 mph 19.6 mph N/A   Clear
9:35 PM 71.6 °F - 64.4 °F 78% 29.82 in 10.0 mi South 15.0 mph 20.7 mph N/A   Clear
9:55 PM 71.6 °F - 64.4 °F 78% 29.83 in 10.0 mi South 16.1 mph - N/A   Clear
10:15 PM 71.6 °F - 64.4 °F 78% 29.84 in 10.0 mi South 15.0 mph 20.7 mph N/A   Clear
10:35 PM 71.6 °F - 64.4 °F 78% 29.84 in 10.0 mi South 15.0 mph - N/A   Clear
11:15 PM 69.8 °F - 64.4 °F 83% 29.85 in 10.0 mi South 13.8 mph 18.4 mph N/A   Clear
11:35 PM 69.8 °F - 64.4 °F 83% 29.85 in 10.0 mi South 13.8 mph - N/A   Clear
11:55 PM 69.8 °F - 64.4 °F 83% 29.84 in 10.0 mi South 15.0 mph - N/A   Clear